Regional Weather Roundup
Issued by NWS

Home | Current Version | Previous Version | Graphics & Text | Print | Product List | Glossary On
Versions: 1 2 3 4 5 6 7 8 9 10 11 12 13 14 15 16 17 18 19 20 21 22 23 24 25 26 27 28 29 30 31 32 33 34 35 36 37 38 39 40 41 42 43 44 45 46 47 48 49 50
000
ASUS44 KMEG 191110
RWRTN
TENNESSEE HOURLY STATE WEATHER ROUNDUP
NATIONAL WEATHER SERVICE MEMPHIS TN
500 AM CST FRI DEC 19 2014

TNZ002-004-019-021-049-052-054-088>092-191200-
WEST TENNESSEE

CITY           SKY/WX    TMP DP  RH WIND       PRES   REMARKS
MEMPHIS INTL   CLOUDY    43  36  76 NE7       30.21S
NWS MEMPHIS      N/A     41 N/A N/A MISG        N/A
JACKSON        CLOUDY    38  33  82 NE7       30.22F WCI  33
DYERSBURG      CLOUDY    37  23  56 NE8       30.25F WCI  31
UNION CITY     CLOUDY    34  30  86 NE8       30.24R WCI  27
PARIS          CLOUDY    32  28  86 NE6       30.24R WCI  26
HUNTINGDON     CLOUDY    33  29  86 NE6       30.24R WCI  27
LEXINGTON      CLOUDY    36  34  93 NE5       30.20S WCI  32
SAVANNAH       CLOUDY    37  36  93 NE5       30.20S WCI  34
$$

TNZ008-025-027-028-033-062-065-066-191200-
NORTH MIDDLE TENNESSEE

CITY           SKY/WX    TMP DP  RH WIND       PRES   REMARKS
NASHVILLE      CLOUDY    35  29  78 NE3       30.25R
CLARKSVILLE    CLOUDY    34  29  82 NE5       30.26R WCI  30
SMYRNA         CLOUDY    34  29  82 NE7       30.25R WCI  28
COOKEVILLE     MOCLDY    28  27  93 CALM      30.20R
CROSSVILLE     CLEAR     31  27  85 CALM      30.17R FOG
$$

TNZ061-075-076-078-094-096-097-191200-
SOUTH MIDDLE TENNESSEE

CITY           SKY/WX    TMP DP  RH WIND       PRES   REMARKS
FAYETTEVILLE   CLOUDY    32  30  93 MISG      30.18S
TULLAHOMA      CLOUDY    32  30  93 CALM      30.20S
WINCHESTER     CLOUDY    32  30  93 NE5       30.20S WCI  27
MCMINNVILLE    CLOUDY    32  32 100 CALM      30.20R
SHELBYVILLE    CLOUDY    34  32  93 N5        30.22S WCI  30
$$

TNZ017-018-042-046-047-191200-
NORTHEAST TENNESSEE

CITY           SKY/WX    TMP DP  RH WIND       PRES   REMARKS
TRI CITIES     CLOUDY    37  26  64 CALM      30.16R
ELIZABETHTON   CLOUDY    36  23  60 W3        30.14S
$$

TNZ012-013-036-069-073-074-191200-
CENTRAL EAST TENNESSEE

CITY           SKY/WX    TMP DP  RH WIND       PRES   REMARKS
KNOXVILLE      CLOUDY    34  27  75 N5        30.19R WCI  30
OAK RIDGE      CLOUDY    32  29  88 CALM      30.21R
GATLINBURG     CLOUDY    34  28  80 CALM      30.18S
MORRISTOWN     CLOUDY    37  25  60 CALM      30.17S
$$

TNZ083-085-099-191200-
SOUTHEAST TENNESSEE

CITY           SKY/WX    TMP DP  RH WIND       PRES   REMARKS
CHATTANOOGA    PTCLDY    33  30  88 CALM      30.19R
$$

SKY/WX REPORTED AS FAIR MEANS FEW OR NO CLOUDS BELOW
12 THOUSAND FEET.




USA.gov is the U.S. government's official web portal to all federal, state and local government web resources and services.